STARLINK-32641, 62236

Orbit data source: Space-Track

STARLINK-32641, 62236 is a payload satellite owned by SpaceX/Seattle (US) in LEO that was launched on Thu, 05 Dec 2024 UTC via an FALCON 9 launch vehicle from the Air Force Western Test Range (AFWTR). Payload-class satellites include a variety of spacecraft equipped with specific instruments for various scientific and technological missions. These include communications satellites like Starlink; space stations such as the ISS; scientific satellites like the Hubble; Earth observation satellites from companies like Planet Labs, Umbra, and HawkEye 360; GPS; miniature CubeSats for education and research; and military/defense satellites.

Loading next visibility...
Identifier
62236, 2024-231U
Orbit
LEO
Country
Flag of USUS
Related business
Manufacturer
SpaceX/Seattle
Mission
Operational Commercial Communications
Bus & Motor
STARLINK V2M, Unknown motor
Mass
730 kg wet, ~700 kg dry
Launch date (UTC)
2024-12-05 (11 months ago)
Launch vehicle
FALCON 9
Launch site
Air Force Western Test Range (AFWTR)
Object type
Payload
Rocket body
Debris
Shape & HBR
Box + 2 Pan, 17.7 m
Radar Cross Section
33.884 m², Large (>1 m²)

Expand to show TLE details & history
Last TLE update: 1 day ago

TLE from 1 day ago
0 STARLINK-32641
1 62236U 24231U   25305.64419637  .00032545  00000-0  11051-2 0  9995
2 62236  53.1601  81.6348 0002819  85.6046 274.5277 15.30229172 52335
Epoch: 2025-11-01T15:27Z
TLE epoch observation values (Epoch: 2025-11-01T15:27:38.566Z)
Latitude
-0°
Longitude
168.55279°
Altitude
475.876 km
Speed
7.629 km/s
True Right ascension
05h 26m 32s
True Declination
0° 00' 00"
Sunlit
Object was in full shadow at epoch
Visualization orbit readout
Latitude
Unknown
Longitude
Unknown
Altitude
Unknown
Speed
Unknown
Apparent Right ascension
Unknown
Apparent Declination
Unknown
Sunlit
N/A
Visualization observer readout
Local Sidereal Time
11:26:04
Azimuth
Unknown
Elevation
Unknown
Doppler factor
Unknown
Orbital elements
Apogee altitude
477.316 km
Perigee altitude
473.452 km
Semi-major axis
6,853.521 km
Eccentricity
0.00028
Inclination
53.1601°
RAAN
81.6348°
Arg. of periapsis
85.6046°
True anomaly
274.4955°
Mean anomaly
274.5277°
Eccentric anomaly
274.5116°
Mean motion
3.82536 °/min
Orbital period
94.11 mins
BSTAR
0.0011051
Loading maneuver chart data...
Computing Atmospheric mass density...
Loading historical data...
Loading historical data...
Loading historical data...
Loading historical data...
Loading historical data...
Loading historical data...
Loading historical data...

Documentation

Showing up to 5 results
|